Location: Gowrie
(35.4119°S, 149.1090°E)
Time: 05:22:50
(UTC+10:00)

ISS - Visible Passes

Search period start: 22 April 2018 00:00
Search period end: 02 May 2018 00:00
Orbit: 403 x 406 km, 51.6° (Epoch: 22 April)

Date Brightness Start Highest point End Pass type
(mag) Time Alt. Az. Time Alt. Az. Time Alt. Az.
23 Apr -1.7 19:19:41 10° NNW 19:21:01 22° NNW 19:21:01 22° NNW visible
24 Apr -2.5 18:28:02 10° N 18:30:48 25° NE 18:31:32 23° ENE visible
25 Apr -3.0 19:11:35 10° WNW 19:14:36 51° WSW 19:14:36 51° WSW visible
26 Apr -3.8 18:19:15 10° NW 18:22:33 72° NE 18:24:50 19° SE visible
26 Apr -0.3 19:57:23 10° WSW 19:57:31 11° WSW 19:57:31 11° WSW visible
27 Apr -1.8 19:04:07 10° W 19:06:52 23° SSW 19:07:38 21° S visible
28 Apr -2.7 18:11:16 10° WNW 18:14:26 41° SW 18:17:38 10° SE visible
29 Apr -1.1 18:57:23 10° SW 18:59:00 13° SSW 19:00:13 11° S visible
30 Apr -1.5 18:03:53 10° W 18:06:25 20° SSW 18:08:58 10° SSE visible
